Regional Weather Roundup
Issued by NWS

Home | Current Version | Previous Version | Graphics & Text | Print | Product List | Glossary On
Versions: 1 2 3 4 5 6 7 8 9 10 11 12 13 14 15 16 17 18 19 20 21 22 23 24 25 26 27 28 29 30 31 32 33 34 35 36 37 38 39 40 41 42 43 44 45 46 47 48 49 50
000
ASUS43 KOAX 270302
RWRNE

WEATHER ROUNDUP FOR NEBRASKA
NATIONAL WEATHER SERVICE OMAHA NE
1000 PM CDT FRI MAY 26 2017

NOTES: SATELLITE DATA IS BEING USED TO AUGMENT CLOUD COVER ABOVE
       12000 FEET.
       "FAIR" INDICATES FEW OR NO CLOUDS BELOW 12,000 FEET WITH NO
       SIGNIFICANT WEATHER AND/OR OBSTRUCTIONS TO VISIBILITY.

  * THESE STATIONS DO NOT REPORT WEATHER SUCH AS RAIN...SNOW OR FOG.

NEZ001>004-019>022-054>056-270400-
NEBRASKA PANHANDLE

CITY           SKY/WX    TMP DP  RH WIND       PRES   REMARKS
SCOTTSBLUFF    LGT RAIN  51  48  89 NE10      29.99R
ALLIANCE       RAIN      52  50  93 N14       29.98R
CHADRON        RAIN      50  48  93 CALM      30.00R FOG
GORDON         RAIN      52  48  89 N7        29.97R
KIMBALL        CLOUDY    51  49  93 NE24G31   29.94R
SIDNEY         TSTM      55  48  77 N21G40    29.93R
$$

NEZ057>060-069>072-079>082-270400-
SOUTHWEST NEBRASKA

CITY           SKY/WX    TMP DP  RH WIND       PRES   REMARKS
NORTH PLATTE   CLOUDY    63  50  62 E6        29.87S
IMPERIAL       CLOUDY    59  49  69 SE18G29   29.82R
LEXINGTON      CLOUDY    63  51  65 E5        29.90R
MCCOOK         CLOUDY    66  54  65 CALM      29.89S
OGALLALA       LGT RAIN  64  51  62 CALM      29.84F
$$

NEZ005>010-023>029-035>040-094-270400-
NORTH CENTRAL NEBRASKA

CITY           SKY/WX    TMP DP  RH WIND       PRES   REMARKS
VALENTINE      CLOUDY    63  43  48 NE7       29.91R
AINSWORTH      PTCLDY    60  46  60 E6        29.91S
BROKEN BOW     CLOUDY    64  47  53 E9        29.89S
O`NEILL        PTCLDY    61  44  53 N3        29.91S
ORD            CLOUDY    61  46  57 N7        29.88R
THEDFORD       CLOUDY    64  44  48 E9        29.89F
$$

NEZ041-046>049-061>064-073>077-083>087-270400-
SOUTH CENTRAL NEBRASKA

CITY           SKY/WX    TMP DP  RH WIND       PRES   REMARKS
GRAND ISLAND   CLOUDY    65  51  60 NE7       29.88R
AURORA         CLOUDY    65  49  55 NE6       29.87R
HASTINGS       PTCLDY    67  48  50 E6        29.87R
HEBRON         CLEAR     68  51  55 CALM      29.85R
HOLDREGE       CLOUDY    65  48  54 CALM      29.89R
KEARNEY *      CLOUDY    63  48  59 N8        29.88R
YORK           CLOUDY    66  48  52 E7        29.87R
$$

NEZ011>018-030>034-042>045-270400-
NORTHEAST NEBRASKA

CITY           SKY/WX    TMP DP  RH WIND       PRES   REMARKS
NORFOLK        CLEAR     61  44  53 N7        29.88R
ALBION         CLOUDY    61  45  54 NE8       29.89R
BLAIR          CLEAR     71  48  43 NE6       29.86R
FREMONT        CLEAR     69  44  39 CALM      29.86S
TEKAMAH        CLEAR     64  50  60 N9        29.86R
WAYNE          CLEAR     59  45  60 CALM      29.89R
$$

NEZ050>053-065>068-078-088>093-270400-
SOUTHEAST NEBRASKA

CITY           SKY/WX    TMP DP  RH WIND       PRES   REMARKS
LINCOLN        CLEAR     67  50  54 NE8       29.86R
OMAHA EPPLEY   PTCLDY    63  54  72 N3        29.86R
BEATRICE       CLEAR     69  50  50 NE3       29.85R
FALLS CITY     PTCLDY    71  55  56 N5        29.82R
NEBRASKA CITY  CLEAR     70  46  41 N5        29.85R
PLATTSMOUTH    CLEAR     73  49  41 N3        29.86R
$$

NEZ044-045-051>053-067-270400-
OMAHA AREA

CITY           SKY/WX    TMP DP  RH WIND       PRES   REMARKS
OMAHA EPPLEY   PTCLDY    63  54  72 N3        29.86R
BLAIR          CLEAR     71  48  43 NE6       29.86R
FREMONT        CLEAR     69  44  39 CALM      29.86S
MILLARD        CLEAR     67  55  66 CALM      29.85R
OFFUTT AFB     CLEAR     62  55  77 N5        29.84R
PLATTSMOUTH    CLEAR     73  49  41 N3        29.86R
WAHOO          FAIR      66  48  52 N7        29.86R
$$



USA.gov is the U.S. government's official web portal to all federal, state and local government web resources and services.